| time (UTC) | temp F | wind direction | speed MPH | gust MPH | rain 1hr in | rain 24hr in | rain mn in | humidity % | barometer mb |
| 20260508213034 | 59 | 136 | 1.0 | 4.0 | 0.00 | 0.00 | 0.00 | 53 | 1010.5 |
| 20260508211532 | 58 | 329 | 1.0 | 5.0 | 0.00 | 0.00 | 0.00 | 55 | 1010.5 |
| 20260508210029 | 57 | 272 | 2.0 | 5.0 | 0.00 | 0.00 | 0.00 | 55 | 1010.5 |
| 20260508204533 | 55 | 272 | 1.0 | 6.0 | 0.00 | 0.00 | 0.00 | 62 | 1010.5 |
| 20260508203027 | 54 | 304 | 1.0 | 11.0 | 0.00 | 0.00 | 0.00 | 72 | 1010.7 |
| 20260508201526 | 53 | 258 | 5.0 | 14.0 | 0.00 | 0.00 | 0.00 | 68 | 1010.9 |
| 20260508200024 | 58 | 267 | 3.0 | 13.0 | 0.00 | 0.00 | 0.00 | 49 | 1010.2 |
| 20260508194524 | 61 | 265 | 2.0 | 8.0 | 0.00 | 0.00 | 0.00 | 43 | 1009.9 |
| 20260508193022 | 62 | 296 | 4.0 | 11.0 | 0.00 | 0.00 | 0.00 | 41 | 1009.6 |
| 20260508191522 | 60 | 291 | 4.0 | 9.0 | 0.00 | 0.00 | 0.00 | 43 | 1009.7 |
| 20260508190026 | 59 | 276 | 6.0 | 13.0 | 0.00 | 0.00 | 0.00 | 44 | 1010.0 |
| 20260508184520 | 58 | 253 | 4.0 | 12.0 | 0.00 | 0.00 | 0.00 | 47 | 1009.7 |
| 20260508183019 | 60 | 294 | 2.0 | 10.0 | 0.00 | 0.00 | 0.00 | 47 | 1009.5 |
| 20260508181518 | 60 | 273 | 4.0 | 12.0 | 0.00 | 0.00 | 0.00 | 44 | 1009.9 |
| 20260508180020 | 60 | 337 | 3.0 | 12.0 | 0.00 | 0.00 | 0.00 | 45 | 1009.9 |
| 20260508174517 | 60 | 293 | 3.0 | 11.0 | 0.00 | 0.00 | 0.00 | 46 | 1009.9 |
| 20260508173015 | 60 | 232 | 4.0 | 12.0 | 0.00 | 0.00 | 0.00 | 45 | 1009.8 |
| 20260508171515 | 58 | 304 | 5.0 | 13.0 | 0.00 | 0.00 | 0.00 | 48 | 1010.2 |
| 20260508170016 | 57 | 254 | 3.0 | 18.0 | 0.00 | 0.00 | 0.00 | 53 | 1010.2 |
| 20260508164514 | 58 | 274 | 3.0 | 11.0 | 0.00 | 0.00 | 0.00 | 53 | 1010.2 |
| 20260508163011 | 57 | 287 | 6.0 | 14.0 | 0.00 | 0.00 | 0.00 | 52 | 1010.5 |
| 20260508161510 | 58 | 270 | 4.0 | 10.0 | 0.00 | 0.00 | 0.00 | 49 | 1010.6 |
| 20260508160020 | 58 | 324 | 4.0 | 10.0 | 0.00 | 0.00 | 0.00 | 55 | 1010.6 |
| 20260508154510 | 58 | 237 | 3.0 | 10.0 | 0.00 | 0.00 | 0.00 | 53 | 1010.6 |
| 20260508153008 | 58 | 239 | 2.0 | 9.0 | 0.00 | 0.00 | 0.00 | 55 | 1010.7 |
| 20260508151509 | 58 | 334 | 4.0 | 11.0 | 0.00 | 0.00 | 0.00 | 52 | 1010.7 |
| 20260508150006 | 58 | 268 | 4.0 | 11.0 | 0.00 | 0.00 | 0.00 | 51 | 1010.8 |
| 20260508144503 | 59 | 270 | 3.0 | 10.0 | 0.00 | 0.00 | 0.00 | 45 | 1010.8 |
| 20260508143000 | 59 | 234 | 1.0 | 6.0 | 0.00 | 0.00 | 0.00 | 37 | 1010.7 |
| 20260508141610 | 58 | 305 | 2.0 | 8.0 | 0.00 | 0.00 | 0.00 | 39 | 1010.8 |
| 20260508140058 | 58 | 266 | 1.0 | 6.0 | 0.00 | 0.00 | 0.00 | 40 | 1010.8 |
| 20260508134556 | 57 | 121 | 3.0 | 8.0 | 0.00 | 0.00 | 0.00 | 41 | 1010.8 |
| 20260508133059 | 57 | 261 | 2.0 | 10.0 | 0.00 | 0.00 | 0.00 | 42 | 1011.0 |
| 20260508131554 | 57 | 7 | 2.0 | 4.0 | 0.00 | 0.00 | 0.00 | 42 | 1011.2 |
| 20260508130056 | 56 | 265 | 2.0 | 6.0 | 0.00 | 0.00 | 0.00 | 44 | 1011.3 |
| 20260508124550 | 56 | 303 | 1.0 | 4.0 | 0.00 | 0.00 | 0.00 | 45 | 1011.3 |
| 20260508123046 | 55 | 7 | 0.0 | 6.0 | 0.00 | 0.00 | 0.00 | 46 | 1011.1 |
| 20260508121559 | 54 | 21 | 0.0 | 3.0 | 0.00 | 0.00 | 0.00 | 47 | 1011.1 |
| 20260508120040 | 53 | 340 | 1.0 | 5.0 | 0.00 | 0.00 | 0.00 | 49 | 1011.1 |
| 20260508114537 | 51 | 40 | 0.0 | 2.0 | 0.00 | 0.02 | 0.00 | 54 | 1011.1 |
| 20260508113030 | 49 | 216 | 0.0 | 4.0 | 0.00 | 0.02 | 0.00 | 56 | 1011.1 |
| 20260508111530 | 47 | 83 | 0.0 | 1.0 | 0.00 | 0.02 | 0.00 | 58 | 1011.0 |
| 20260508110033 | 47 | 98 | 0.0 | 1.0 | 0.00 | 0.02 | 0.00 | 58 | 1011.0 |
| 20260508104527 | 46 | 66 | 0.0 | 0.0 | 0.00 | 0.04 | 0.00 | 59 | 1010.7 |
| 20260508103026 | 46 | 66 | 0.0 | 0.0 | 0.00 | 0.04 | 0.00 | 59 | 1010.7 |
| 20260508101525 | 46 | 66 | 0.0 | 1.0 | 0.00 | 0.04 | 0.00 | 59 | 1010.5 |
| 20260508100023 | 46 | 66 | 0.0 | 1.0 | 0.00 | 0.04 | 0.00 | 57 | 1010.2 |
| 20260508094525 | 46 | 66 | 0.0 | 1.0 | 0.00 | 0.06 | 0.00 | 56 | 1010.1 |
| 20260508093024 | 47 | 258 | 0.0 | 1.0 | 0.00 | 0.06 | 0.00 | 56 | 1010.2 |
| 20260508091519 | 47 | 291 | 0.0 | 1.0 | 0.00 | 0.06 | 0.00 | 54 | 1009.9 |
| 20260508090018 | 47 | 316 | 0.0 | 4.0 | 0.00 | 0.06 | 0.00 | 53 | 1009.7 |
| 20260508084518 | 47 | 282 | 0.0 | 2.0 | 0.00 | 0.08 | 0.00 | 52 | 1009.6 |
| 20260508083043 | 47 | 307 | 0.0 | 4.0 | 0.00 | 0.08 | 0.00 | 52 | 1009.4 |
| 20260508081516 | 47 | 281 | 0.0 | 3.0 | 0.00 | 0.08 | 0.00 | 53 | 1009.6 |
| 20260508080014 | 47 | 300 | 0.0 | 3.0 | 0.00 | 0.08 | 0.00 | 52 | 1009.4 |
| 20260508074513 | 47 | 264 | 0.0 | 2.0 | 0.00 | 0.22 | 0.00 | 52 | 1009.1 |
| 20260508073012 | 47 | 199 | 0.0 | 1.0 | 0.00 | 0.22 | 0.00 | 52 | 1008.8 |
| 20260508071511 | 47 | 99 | 0.0 | 1.0 | 0.00 | 0.22 | 0.00 | 53 | 1008.7 |
| 20260508070013 | 46 | 35 | 0.0 | 0.0 | 0.00 | 0.22 | 0.00 | 53 | 1008.5 |
| 20260508064534 | 46 | 35 | 0.0 | 1.0 | 0.00 | 0.23 | 0.00 | 54 | 1008.3 |
| 20260508063008 | 46 | 35 | 0.0 | 1.0 | 0.00 | 0.23 | 0.00 | 55 | 1008.3 |
| 20260508061508 | 45 | 35 | 0.0 | 0.0 | 0.00 | 0.23 | 0.00 | 58 | 1008.3 |
| 20260508060008 | 45 | 35 | 0.0 | 0.0 | 0.00 | 0.23 | 0.00 | 57 | 1008.1 |
| 20260508054503 | 45 | 35 | 0.0 | 0.0 | 0.00 | 0.24 | 0.00 | 57 | 1008.1 |
| 20260508053106 | 46 | 35 | 0.0 | 0.0 | 0.00 | 0.24 | 0.00 | 57 | 1008.2 |
| 20260508051600 | 46 | 35 | 0.0 | 0.0 | 0.00 | 0.24 | 0.00 | 58 | 1008.3 |
| 20260508050059 | 46 | 35 | 0.0 | 0.0 | 0.00 | 0.24 | 0.00 | 57 | 1008.6 |
| 20260508044553 | 47 | 35 | 0.0 | 0.0 | 0.00 | 0.24 | 0.00 | 55 | 1008.7 |
| 20260508043049 | 48 | 35 | 0.0 | 1.0 | 0.00 | 0.24 | 0.00 | 53 | 1008.7 |
| 20260508041551 | 49 | 35 | 0.0 | 1.0 | 0.00 | 0.24 | 0.00 | 52 | 1008.9 |
| 20260508040047 | 49 | 35 | 0.0 | 1.0 | 0.00 | 0.24 | 0.00 | 53 | 1008.9 |
| 20260508034544 | 49 | 46 | 0.0 | 1.0 | 0.00 | 0.26 | 0.24 | 53 | 1008.8 |
| 20260508033042 | 50 | 45 | 0.0 | 1.0 | 0.00 | 0.26 | 0.24 | 54 | 1008.9 |
| 20260508031542 | 50 | 45 | 0.0 | 1.0 | 0.00 | 0.26 | 0.24 | 54 | 1008.9 |
| 20260508030053 | 50 | 45 | 0.0 | 1.0 | 0.00 | 0.26 | 0.24 | 53 | 1008.8 |
| 20260508024553 | 51 | 45 | 0.0 | 1.0 | 0.00 | 0.26 | 0.24 | 53 | 1008.8 |
| 20260508023040 | 51 | 45 | 0.0 | 1.0 | 0.00 | 0.26 | 0.24 | 53 | 1008.7 |
| 20260508021541 | 51 | 45 | 0.0 | 1.0 | 0.00 | 0.26 | 0.24 | 51 | 1008.9 |
| 20260508020046 | 51 | 46 | 0.0 | 1.0 | 0.00 | 0.26 | 0.24 | 53 | 1008.9 |
| 20260508014540 | 51 | 46 | 0.0 | 1.0 | 0.00 | 0.26 | 0.24 | 54 | 1009.0 |
| 20260508013039 | 52 | 47 | 0.0 | 0.0 | 0.00 | 0.26 | 0.24 | 52 | 1008.9 |
| 20260508011550 | 52 | 47 | 0.0 | 0.0 | 0.00 | 0.26 | 0.24 | 54 | 1008.6 |
| 20260508010046 | 53 | 47 | 0.0 | 0.0 | 0.00 | 0.26 | 0.24 | 52 | 1008.6 |
| 20260508004551 | 53 | 46 | 0.0 | 0.0 | 0.00 | 0.26 | 0.24 | 46 | 1008.4 |
| 20260508003042 | 55 | 46 | 0.0 | 0.0 | 0.00 | 0.26 | 0.24 | 44 | 1008.0 |
| 20260508001540 | 56 | 46 | 0.0 | 1.0 | 0.00 | 0.26 | 0.24 | 43 | 1007.8 |
| 20260508000036 | 56 | 47 | 0.0 | 1.0 | 0.00 | 0.26 | 0.24 | 41 | 1007.6 |
| 20260507234536 | 57 | 47 | 0.0 | 1.0 | 0.00 | 0.26 | 0.24 | 40 | 1007.3 |
| 20260507233035 | 58 | 58 | 0.0 | 2.0 | 0.00 | 0.26 | 0.24 | 38 | 1007.3 |
| 20260507231539 | 59 | 33 | 0.0 | 2.0 | 0.00 | 0.26 | 0.24 | 39 | 1007.1 |
| 20260507230036 | 59 | 27 | 0.0 | 2.0 | 0.00 | 0.26 | 0.24 | 37 | 1007.0 |
| 20260507224537 | 60 | 9 | 0.0 | 3.0 | 0.00 | 0.26 | 0.24 | 35 | 1006.9 |
| 20260507223033 | 61 | 36 | 0.0 | 4.0 | 0.00 | 0.26 | 0.24 | 36 | 1006.7 |
| 20260507221536 | 62 | 61 | 1.0 | 4.0 | 0.00 | 0.26 | 0.24 | 33 | 1006.5 |
| 20260507220032 | 63 | 23 | 1.0 | 5.0 | 0.00 | 0.26 | 0.24 | 32 | 1006.6 |
| 20260507214531 | 64 | 352 | 1.0 | 9.0 | 0.00 | 0.36 | 0.24 | 32 | 1006.5 |